Big Rapids, MI

9:37 PM EST on February 07, 2016 (GMT -0500)
Roben-Hood

Weather History for KRQB - February, 2014

Change the Weather History Date:

Thursday, February 20, 2014

  Actual Average Record
Temperature  
Mean Temperature 32 °F -  
Max Temperature 37 °F 36 °F 59 °F (1983)
Min Temperature 27 °F 15 °F -25 °F (2015)
Degree Days  
Heating Degree Days 33    
Moisture  
Dew Point 30 °F    
Average Humidity 88    
Maximum Humidity 100    
Minimum Humidity 69    
Precipitation  
Precipitation 0.15 in - - ()
Sea Level Pressure  
Sea Level Pressure 29.70 in    
Wind  
Wind Speed 8 mph (SE)    
Max Wind Speed 22 mph    
Max Gust Speed 30 mph    
Visibility 6 miles    
Events Snow    
Averages and records for this station are not official NWS values.
T = Trace of Precipitation, MM = Missing Value Source: NWS Daily Summary

Daily Weather History Graph

Daily Weather History Graph

Search for Another Location

Airport or City:

Trip Planner

Search our weather history database for the weather conditions in past years. The results will help you decide how hot, cold, wet, or windy it might be!

Date:

Astronomy

Feb. 20, 2014 Rise Set
Actual Time 7:33 AM EST 6:18 PM EST
Civil Twilight 7:03 AM EST 6:48 PM EST
Nautical Twilight 6:30 AM EST 7:21 PM EST
Astronomical Twilight 5:57 AM EST 7:54 PM EST
Moon No Moon Rise 10:04 AM EST (2/20)
Length of Visible Light 11h 44m
Length of Day
10h 45m
Waning Gibbous, 71% of the Moon is Illuminated
Feb 20
Waning Gibbous
Feb 22
Last Quarter
Mar 1
New
Mar 8
First Quarter
Mar 16
Full

Hourly Weather History & Observations

Time (EST) Temp. Windchill Dew Point Humidity Pressure Visibility Wind Dir Wind Speed Gust Speed Precip Events Conditions
12:15 AM 32.9 °F 27.5 °F 24.8 °F 72% 29.95 in 10.0 mi SW 5.8 mph - N/A   Clear
12:35 AM 32.7 °F 28.3 °F 24.4 °F 72% 29.95 in 10.0 mi SSW 4.6 mph - N/A   Clear
12:55 AM 32.7 °F 26.4 °F 24.8 °F 73% 29.96 in 10.0 mi SSW 6.9 mph - N/A   Clear
1:14 AM 33.1 °F 27.7 °F 25.2 °F 73% 29.96 in 10.0 mi SW 5.8 mph - N/A   Clear
1:35 AM 32.9 °F 29.8 °F 25.0 °F 73% 29.95 in 10.0 mi South 3.5 mph - N/A   Clear
1:55 AM 32.0 °F 27.5 °F 25.0 °F 75% 29.95 in 10.0 mi South 4.6 mph - N/A   Clear
2:14 AM 32.7 °F 28.3 °F 25.3 °F 74% 29.95 in 10.0 mi SSW 4.6 mph - N/A   Clear
2:35 AM 32.0 °F 26.4 °F 25.3 °F 76% 29.96 in 10.0 mi SW 5.8 mph - N/A   Clear
2:55 AM 32.0 °F 28.7 °F 25.5 °F 77% 29.96 in 10.0 mi South 3.5 mph - N/A   Clear
3:14 AM 29.7 °F 26.1 °F 24.6 °F 81% 29.95 in 10.0 mi ESE 3.5 mph - N/A   Clear
3:35 AM 28.6 °F 24.8 °F 23.9 °F 83% 29.95 in 7.0 mi ESE 3.5 mph - N/A   Clear
3:55 AM 28.8 °F 23.7 °F 24.3 °F 83% 29.94 in 7.0 mi ESE 4.6 mph - N/A   Clear
4:15 AM 28.9 °F - 24.6 °F 84% 29.93 in 7.0 mi Calm Calm - N/A   Clear
4:35 AM 29.1 °F - 24.8 °F 84% 29.92 in 7.0 mi Calm Calm - N/A   Clear
4:55 AM 29.3 °F - 24.6 °F 83% 29.92 in 7.0 mi Calm Calm - N/A   Clear
5:15 AM 29.3 °F - 24.8 °F 83% 29.92 in 7.0 mi Calm Calm - N/A   Scattered Clouds
5:35 AM 27.5 °F - 23.9 °F 86% 29.91 in 7.0 mi Calm Calm - N/A   Mostly Cloudy
5:55 AM 28.0 °F - 24.4 °F 86% 29.90 in 7.0 mi Calm Calm - N/A   Overcast
6:15 AM 28.2 °F - 24.8 °F 87% 29.88 in 7.0 mi Calm Calm - N/A   Overcast
6:35 AM 29.3 °F - 25.2 °F 85% 29.87 in 7.0 mi Calm Calm - N/A   Overcast
6:55 AM 29.8 °F - 25.2 °F 83% 29.88 in 7.0 mi Calm Calm - N/A   Overcast
7:15 AM 28.6 °F - 24.8 °F 86% 29.87 in 7.0 mi Calm Calm - N/A   Overcast
7:35 AM 30.4 °F - 25.3 °F 82% 29.87 in 7.0 mi Calm Calm - N/A   Overcast
7:55 AM 30.4 °F - 25.2 °F 81% 29.86 in 10.0 mi Calm Calm - N/A   Overcast
8:15 AM 30.0 °F - 25.5 °F 83% 29.87 in 7.0 mi Calm Calm - N/A   Overcast
8:35 AM 32.7 °F 22.5 °F 26.4 °F 78% 29.90 in 1.5 mi South 15.0 mph 19.6 mph N/A Snow Light Snow
8:55 AM 32.9 °F 25.3 °F 32.9 °F 100% 29.89 in 1.2 mi South 9.2 mph - 0.02 in Snow Light Snow
9:15 AM 33.1 °F 26.9 °F 33.1 °F 100% 29.87 in 1.0 mi SE 6.9 mph - 0.02 in Snow Light Snow
9:35 AM 34.0 °F 27.2 °F 34.0 °F 100% 29.84 in 5.0 mi East 8.1 mph - 0.03 in Snow Light Snow
9:55 AM 36.9 °F 27.5 °F 31.3 °F 80% 29.82 in 10.0 mi SE 16.1 mph 23.0 mph 0.03 in   Overcast
10:15 AM 37.4 °F 29.8 °F 30.6 °F 76% 29.82 in 10.0 mi East 11.5 mph - N/A   Overcast
10:35 AM 37.4 °F 30.8 °F 30.2 °F 75% 29.81 in 10.0 mi ESE 9.2 mph - N/A   Overcast
10:55 AM 37.4 °F 30.3 °F 30.2 °F 75% 29.79 in 10.0 mi ESE 10.4 mph - N/A   Overcast
11:14 AM 37.6 °F 28.4 °F 29.3 °F 72% 29.78 in 10.0 mi ESE 16.1 mph - N/A   Overcast
11:35 AM 37.2 °F 27.6 °F 28.0 °F 69% 29.77 in 7.0 mi SE 17.3 mph 23.0 mph N/A Snow Light Snow
11:55 AM 35.1 °F 24.1 °F 30.0 °F 82% 29.76 in 2.5 mi SE 19.6 mph 24.2 mph N/A Snow Light Snow
12:15 PM 34.9 °F 24.9 °F 30.9 °F 85% 29.75 in 5.0 mi SE 16.1 mph 21.9 mph N/A Snow Light Snow
12:35 PM 35.1 °F 24.5 °F 31.1 °F 85% 29.73 in 3.0 mi ESE 18.4 mph 23.0 mph N/A Snow Light Snow
12:55 PM 34.7 °F 24.7 °F 31.5 °F 88% 29.72 in 3.0 mi ESE 16.1 mph 21.9 mph N/A   Overcast
1:15 PM 34.7 °F 25.1 °F 31.1 °F 87% 29.70 in 7.0 mi ESE 15.0 mph 21.9 mph N/A   Overcast
1:35 PM 34.7 °F 25.9 °F 31.1 °F 87% 29.68 in 4.0 mi ESE 12.7 mph 23.0 mph N/A   Overcast
1:55 PM 34.7 °F 24.0 °F 31.6 °F 89% 29.68 in 2.5 mi ESE 18.4 mph 26.5 mph N/A   Overcast
2:15 PM 34.7 °F 23.7 °F 32.0 °F 90% 29.67 in 7.0 mi ESE 19.6 mph 24.2 mph N/A   Overcast
2:34 PM 35.2 °F 25.8 °F 31.1 °F 85% 29.65 in 10.0 mi East 15.0 mph 25.3 mph N/A   Overcast
2:55 PM 35.6 °F 26.6 °F 31.1 °F 84% 29.64 in 10.0 mi ESE 13.8 mph 19.6 mph N/A   Overcast
3:15 PM 35.2 °F 25.8 °F 31.1 °F 85% 29.64 in 5.0 mi East 15.0 mph - N/A   Overcast
3:35 PM 34.9 °F 24.9 °F 31.6 °F 88% 29.63 in 10.0 mi East 16.1 mph 24.2 mph N/A Snow Light Snow
3:55 PM 35.1 °F 25.5 °F 31.3 °F 86% 29.64 in 10.0 mi ESE 15.0 mph 25.3 mph N/A Snow Light Snow
4:15 PM 34.9 °F 25.3 °F 31.6 °F 88% 29.64 in 4.0 mi East 15.0 mph 21.9 mph 0.01 in Snow Light Snow
4:35 PM 34.3 °F 23.2 °F 33.1 °F 95% 29.60 in 1.2 mi East 19.6 mph 24.2 mph 0.03 in Snow Light Snow
4:55 PM 34.2 °F 24.0 °F 33.4 °F 97% 29.59 in 10.0 mi East 16.1 mph 26.5 mph 0.03 in   Overcast
5:15 PM 34.0 °F 22.7 °F 33.3 °F 97% 29.57 in 10.0 mi East 19.6 mph 28.8 mph N/A   Overcast
5:35 PM 34.0 °F 22.1 °F 33.8 °F 99% 29.54 in 10.0 mi East 21.9 mph 28.8 mph N/A Snow Light Snow
5:55 PM 33.8 °F 22.5 °F 33.8 °F 100% 29.54 in 5.0 mi ESE 19.6 mph 28.8 mph N/A Snow Light Snow
6:15 PM 33.8 °F 22.8 °F 33.8 °F 100% 29.51 in 3.0 mi ESE 18.4 mph 26.5 mph 0.01 in Snow Light Snow
6:35 PM 33.6 °F 22.9 °F 33.6 °F 100% 29.51 in 7.0 mi ESE 17.3 mph 28.8 mph 0.01 in Snow Light Snow
6:55 PM 33.4 °F 21.7 °F 33.4 °F 100% 29.48 in 3.0 mi East 20.7 mph 27.6 mph 0.04 in Snow Light Snow
7:15 PM 33.4 °F 22.7 °F 33.4 °F 100% 29.46 in 3.0 mi ESE 17.3 mph 28.8 mph N/A Snow Light Snow
7:35 PM 33.4 °F 22.3 °F 33.4 °F 100% 29.44 in 4.0 mi ESE 18.4 mph 28.8 mph 0.01 in Snow Light Snow
7:55 PM 33.4 °F 22.0 °F 33.4 °F 100% 29.43 in 5.0 mi ESE 19.6 mph 27.6 mph 0.01 in   Overcast
8:14 PM 33.8 °F 22.5 °F 33.8 °F 100% 29.42 in 5.0 mi ESE 19.6 mph 29.9 mph N/A   Overcast
8:35 PM 33.6 °F 22.6 °F 33.6 °F 100% 29.40 in 3.0 mi ESE 18.4 mph 21.9 mph N/A   Overcast
8:55 PM 33.8 °F 23.2 °F 33.8 °F 100% 29.39 in 3.0 mi ESE 17.3 mph 25.3 mph N/A Snow Light Snow
9:14 PM 34.0 °F 25.5 °F 34.0 °F 100% 29.37 in 4.0 mi SE 11.5 mph 23.0 mph N/A   Overcast
9:35 PM 34.0 °F 24.2 °F 34.0 °F 100% 29.35 in 7.0 mi ESE 15.0 mph - 0.01 in Snow Light Snow
9:55 PM 34.0 °F 24.6 °F 34.0 °F 100% 29.32 in 4.0 mi ESE 13.8 mph 24.2 mph 0.02 in Snow Light Snow
10:15 PM 34.0 °F 24.2 °F 34.0 °F 100% 29.30 in 4.0 mi ESE 15.0 mph 25.3 mph N/A   Overcast
10:35 PM 34.3 °F 25.0 °F 34.3 °F 100% 29.29 in 4.0 mi SE 13.8 mph 20.7 mph N/A   Overcast
10:55 PM 34.7 °F 26.9 °F 34.7 °F 100% 29.27 in 4.0 mi SE 10.4 mph 19.6 mph N/A   Overcast
11:15 PM 34.9 °F 26.6 °F 34.9 °F 100% 29.27 in 5.0 mi SE 11.5 mph 17.3 mph N/A   Overcast
11:35 PM 35.6 °F 27.1 °F 35.6 °F 100% 29.27 in 5.0 mi SSE 12.7 mph 16.1 mph N/A   Overcast
11:55 PM 36.0 °F 29.0 °F 36.0 °F 100% 29.27 in 4.0 mi SSE 9.2 mph - N/A   Overcast